Regional Weather Roundup
Issued by NWS Grand Forks, ND

Home | Current Version | Previous Version | Text Only | Print | Product List | Glossary Off
Versions: 1 2 3 4 5 6 7 8 9 10 11 12 13 14 15 16 17 18 19 20 21 22 23 24 25 26 27 28 29 30 31 32 33 34 35 36 37 38 39 40 41 42 43 44 45 46 47 48 49 50

000
ASUS43 KFGF 300431
RWRFGF
PRAIRIE TO PINES  WEATHER ROUNDUP
NATIONAL WEATHER SERVICE EASTERN NORTH DAKOTA/GRAND FORKS ND
1100 PM CDT SUN MAY 29 2016

 **SATELLITE DATA USED TO AUGMENT SKY COVER AT AUTOMATED STATIONS**
 *****  WEATHER ACROSS EASTERN NORTH DAKOTA  *****

CITY           SKY/WX    TMP DP  RH WIND       PRES   REMARKS
GRAND FORKS    CLEAR     58  50  75 SW6       29.91S
GRAND FRKS AFB CLEAR     57  50  77 W3        29.92S
GRAND FRKS NWS   N/A     57 N/A N/A MISG        N/A
DEVILS LAKE    CLEAR     60  49  66 SW3       29.94S
FARGO          CLEAR     61  50  67 CALM      29.93R
WAHPETON ARPT  CLEAR     55  41  58 S5        29.95S
$$

 ***** WEATHER ACROSS CENTRAL AND WESTERN NORTH DAKOTA  *****

CITY           SKY/WX    TMP DP  RH WIND       PRES   REMARKS
BISMARCK       CLEAR     62  50  64 CALM      29.95R
MINOT          CLEAR     66  43  43 CALM      29.92R
JAMESTOWN      CLEAR     61  46  57 CALM      29.94S
MINOT AFB      CLEAR     58  46  62 S6        29.91R
GARRISON         N/A     62  45  53 CALM      29.94R
WILLISTON      CLEAR     55  43  63 CALM      29.93R
DICKINSON      PTCLDY    55  43  63 SE8       29.94S
HETTINGER      CLEAR     57  49  74 S7        29.99R
$$

 *****  OTHER AIRPORT OBSERVATIONS IN OUR AREA  *****

CITY           SKY/WX    TMP DP  RH WIND       PRES   REMARKS
WALHALLA       FAIR      55  54  94 CALM      29.91S
GRAFTON AIRPOR FAIR      59  59 100 S6        29.93S
VALLEY CITY AR FAIR      57  46  67 CALM      29.97S
CANDO          FAIR      55  45  67 SW3       29.95S
CAVALIER APRT  FAIR      57  55  94 CALM      29.90F
GWINNER        FAIR      61  54  77 S6        29.97R
SHEYENNE NWR     N/A     55  49  80 CALM      29.95S
ROLLA          FAIR      52  43  71 W7        29.94S
 ***** THE ABOVE OBSERVATIONS ARE NON NWS ARE NOT QUALITY
       CONTROLLED AND MAY MIS-REPORT RAIN FOR SNOW...
$$

  *****  WEATHER ACROSS NORTHERN MINNESOTA  *****

CITY           SKY/WX    TMP DP  RH WIND       PRES   REMARKS
FLAG ISLAND    CLEAR     59  54  82 CALM      29.89S
WARROAD        CLEAR     55  52  88 CALM      29.92R
ROSEAU         PTCLDY    59  52  77 W5        29.91S
HALLOCK        CLEAR     57  54  88 S5        29.90S
THF RVR FALLS  CLEAR     57  50  77 CALM      29.94S
BAUDETTE       CLEAR     53  50  89 W3        29.91R
WASKISH        CLEAR     63  55  77 W5        29.92S
CROOKSTON      CLEAR     61  54  77 S6        29.93S
STEPHEN NDAWN    N/A     61  54  77 S1          N/A
GREENBUSH NDAW   N/A     52  52 100 S3          N/A
$$
  *****  WEATHER ACROSS CENTRAL AND WEST MINNESOTA  *****

CITY           SKY/WX    TMP DP  RH WIND       PRES   REMARKS
FOSSTON        CLEAR     54  50  87 CALM      29.95S
BEMIDJI        CLEAR     52  49  89 CALM      29.94S
PARK RAPIDS    CLEAR     59  52  77 CALM      29.95S
ELBOW LAKE     FAIR      61  49  63 SE5       29.98R
WADENA         PTCLDY    54  50  87 CALM      29.96F
DETROIT LAKES  CLEAR     59  52  77 CALM      29.97S
MOORHEAD       CLEAR     63  52  67 SE3       29.94S
FERGUS FALLS   CLEAR     61  46  59 SE3       29.93R
MORRIS MN      CLEAR     59  46  63 CALM      29.97R
STAPLES        CLEAR     54  52  94 CALM      29.97S
$$
  *****  WEATHER ELSEWHERE ACROSS MINNESOTA  *****

CITY           SKY/WX    TMP DP  RH WIND       PRES   REMARKS
DULUTH         CLEAR     54  50  86 W9        29.93S
INTRNTL FALLS  CLEAR     50  50 100 CALM      29.89S
ELY            CLOUDY    52  52 100 CALM      29.91R
CLOQUET        CLEAR     59  52  77 SW6       29.95R
WHEATON        PTCLDY    63  46  55 S6        29.98S
BRAINERD       CLEAR     54  52  93 S3        29.97R
HIBBING        CLEAR     52  50  93 W3        29.93R
ALEXANDRIA     CLEAR     57  51  80 S3        29.99R
SAINT CLOUD    CLEAR     58  55  90 CALM      29.98R
MINNEAPOLIS    CLEAR     68  57  68 W3        29.98R
$$

  *****  WEATHER ACROSS SOUTH DAKOTA  *****

CITY           SKY/WX    TMP DP  RH WIND       PRES   REMARKS
SIOUX FALLS    CLEAR     60  55  83 CALM      30.03S
BROOKINGS      CLEAR     62  51  67 S8        30.03R
WATERTOWN      CLEAR     59  52  77 SW6       30.01R
HURON          CLEAR     67  51  56 S8        30.00R
SISSETON         N/A     60  48  64 SW5       29.97R
ABERDEEN       PTCLDY    62  50  64 S6        29.97R
MITCHELL       MOCLDY    66  56  70 SE7       30.01S
PIERRE         CLEAR     64  54  69 E8        29.97R
MOBRIDGE       CLEAR     60  54  80 SE8       29.95R
RAPID CITY     CLEAR     61  53  75 E9        29.98S
$$

  *****  SOME WEATHER IN NEARBY STATES *****

CITY           SKY/WX    TMP DP  RH WIND       PRES   REMARKS
GLASGOW MT     CLEAR     64  41  42 N5        29.90S
GREAT FALLS MT PTCLDY    53  42  66 NE3       29.97S
CHEYENNE WY    CLOUDY    55  42  61 W12       30.13F
SCOTTSBLUFF NE PTCLDY    60  43  53 N5        30.01F
OMAHA NE       CLOUDY    73  61  65 SE6       30.01R
DES MOINES IA  CLOUDY    71  57  61 S6        30.02R
DAVENPORT IA   MOCLDY    71  57  61 S6        30.03R
CHICAGO IL     PTCLDY    70  58  65 W6        30.00R
EAU CLAIRE WI  MOCLDY    62  57  83 SW5       29.96R
LA CROSSE WI   PTCLDY    65  60  84 SE5       29.98R
$$

  *****  SOME NATIONAL WEATHER *****

CITY           SKY/WX    TMP DP  RH WIND       PRES   REMARKS
LA GUARDIA NY  CLOUDY    71  70  96 S5        30.05F
RALEIGH NC     CLOUDY    66  64  93 CALM      30.05S
ATLANTA GA     PTCLDY    73  63  70 SE5       30.07S
NEW ORLEANS LA PTCLDY    79  70  74 S6        30.05R
OKLAHOMA CITY  CLOUDY    69  61  75 NE10      30.08F
ALBUQUERQUE NM PTCLDY    68  17  14 SE8       30.05R
SALT LAKE CITY CLOUDY    66  44  45 S10       30.05R
LOS ANGELES CA PTCLDY    60  54  80 W10       30.00R
BOISE ID       CLEAR     73  32  22 N3        29.94R
SEATTLE WA     PTCLDY    59  43  55 NE10      30.21R
$$

*** WEATHER ACROSS MANITOBA...SASKATCHEWAN AND ONTARIO ***
                ***ONTARIO***

CITY           SKY/WX    TMP DP  RH WIND       PRES   REMARKS
GERALDTON      MOCLDY    50  48  93 NW5       29.76S FOG
THUNDER BAY    PTCLDY    55  54  94 W6        29.82S
SIOUX LOOKOUT  DRIZZLE   54  54 100 NW6       29.83S
TORONTO        CLOUDY    73  55  53 S10       29.91F
BIG TROUT LK   CLOUDY    45  37  76 NE7       29.89S
PICKLE LAKE    NOT AVBL
DRYDEN         CLOUDY    54  54 100 W7        29.85S
KENORA         PTCLDY    55  52  88 NW6       29.89S
$$
                *** MANITOBA***

CITY           SKY/WX    TMP DP  RH WIND       PRES   REMARKS
BRANDON        PTCLDY    55  52  88 E9        29.90R
DAUPHIN        PTCLDY    54  52  94 SW2       29.88S
ISLAND LAKE    LGT RAIN  50  48  93 NE7       29.94R
PILOT MOUND      N/A     55  48  76 S3          N/A
THE PAS        DRIZZLE   48  48 100 N3        29.93R FOG
THOMPSON       LGT RAIN  46  45  93 NE9G17    29.98S
WINNIPEG       CLEAR     57  52  82 N5        29.91R
LYNN LAKE      LGT RAIN  45  45 100 E7        30.00S
CHURCHILL      CLOUDY    27  27 100 E14       30.21R FOG     WCI  15
GILLAM         MOCLDY    43  39  87 NE9       30.03S
$$
                ***SASKATCHEWAN***

CITY           SKY/WX    TMP DP  RH WIND       PRES   REMARKS
ESTEVAN        NOT AVBL
KINDERSLEY     MOCLDY    59  43  55 E12       29.84S
LLOYDMINSTER   MOCLDY    52  48  87 E8        29.89R
PRINCE ALBERT  PTCLDY    50  46  87 NE7       29.92S
REGINA         PTCLDY    59  43  55 CALM      29.89
YORKTON        MOCLDY    57  46  67 SE7       29.87S
N. BATTLEFORD  CLEAR     54  48  82 NE9       29.91R
LA RONGE       MOCLDY    48  41  76 CALM      29.94
SASKATOON      PTCLDY    55  50  82 NE13      29.90R
SWIFT CURRENT  MOCLDY    55  46  71 SW10      29.88R
$$
NOTE: THESE ARE AUTOMATED STATIONS WITH LIMITED QUALITY CONTROL
      "FAIR" INDICATES FEW OR NO CLOUDS BELOW 12,000 FEET WITH NO
      SIGNIFICANT WEATHER AND/OR OBSTRUCTIONS TO VISIBILITY.
      SKY/WX - SKY CONDITION AND SIGNIFICANT WEATHER.
      TMP - AIR TEMPERATURE.    DP   - DEWPOINT TEMPERATURE.
      RH  - RELATIVE HUMIDITY.  PRES - PRESSURE.
      HX  - HEAT INDEX.         WCI  - WIND CHILL INDEX.
$



USA.gov is the U.S. government's official web portal to all federal, state and local government web resources and services.